User: anonymous   Login
Location: Dreilärchen
(47.9312°N, 8.6113°E)
Time: 01:16:03
(UTC+00:00)
Language:

MOZ.5/SAFIR/RUBIN 5/SL-8 - Orbit

View from above orbital plane
View from above orbital plane
View from above satellite
View from above satellite

Ground track
Ground track

The orbit data is extracted from the following two-line orbital elements,

1 28898U 05043G   23033.32344774  .00000762  00000-0  16461-3 0  9998
2 28898  98.1888 159.6079 0018741 226.1211 133.8442 14.61012130543312
Epoch (UTC): 02 February 2023 07:45:45
Eccentricity: 0.0018741
inclination: 98.1888°
perigee height: 676 km
apogee height: 703 km
right ascension of ascending node: 159.6079°
argument of perigee: 226.1211°
revolutions per day: 14.61012130
mean anomaly at epoch: 133.8442°
orbit number at epoch: 54331

The dashed part of the orbit path shows where the satellite is in the earth's shadow,  

DLR